Location: Caltech
(34.1382°N, 118.1253°W)
Time: 14:16:22
(UTC-07:00)

NOAA 19 - Visible Passes

Search period start: 01 May 2016 00:00
Search period end: 11 May 2016 00:00
Orbit: 842 x 862 km, 99.0° (Epoch: 01 May)

Date Brightness Start Highest point End Pass type
(mag) Time Alt. Az. Time Alt. Az. Time Alt. Az.
01 May 6.5 03:02:23 10° NE 03:07:21 33° E 03:08:20 31° ESE visible
01 May 6.3 04:43:13 10° N 04:47:52 28° WNW 04:50:22 20° WSW visible
02 May 6.8 02:51:22 10° NE 02:55:55 26° E 02:56:54 24° ESE visible
02 May 5.9 04:31:35 10° N 04:36:36 36° WNW 04:38:57 25° WSW visible
03 May 7.2 02:40:30 10° NE 02:44:28 20° E 02:45:29 19° ESE visible
03 May 5.6 04:20:03 10° N 04:25:18 45° WNW 04:27:31 30° WSW visible
04 May 7.4 02:29:53 10° ENE 02:33:01 15° E 02:34:03 15° ESE visible
04 May 5.3 04:08:33 10° N 04:14:00 58° WNW 04:16:06 36° SW visible
05 May 7.7 02:19:51 10° ENE 02:21:32 11° E 02:22:38 11° ESE visible
05 May 5.1 03:57:07 10° N 04:02:41 75° WNW 04:04:40 41° SSW visible
06 May 5.2 03:45:45 10° NNE 03:51:20 86° ESE 03:53:14 44° S visible
06 May 7.2 05:29:42 10° NW 05:31:13 11° WNW 05:32:44 10° WNW visible
07 May 5.4 03:34:25 10° NNE 03:39:58 67° ESE 03:41:48 42° S visible
07 May 7.0 05:17:08 10° NNW 05:20:01 15° WNW 05:22:55 10° W visible
08 May 5.8 03:23:10 10° NNE 03:28:35 52° E 03:30:22 38° SSE visible
08 May 6.8 05:05:06 10° NNW 05:08:48 19° WNW 05:12:24 10° WSW visible
09 May 6.2 03:11:58 10° NNE 03:17:11 40° E 03:18:56 32° SE visible
09 May 6.5 04:53:17 10° NNW 04:57:35 23° WNW 05:00:58 14° WSW visible
10 May 6.6 03:00:52 10° NE 03:05:47 31° E 03:07:29 26° SE visible
10 May 6.2 04:41:35 10° N 04:46:19 30° WNW 04:49:31 17° WSW visible
